STARLINK-4548 (53431 NORAD) Tracking and Keplerian Element Data

This shows tracking and keplerian element data for the satellite.

Feedback or suggestion? Click here.




ElementValue
Catalog53431
NameSTARLINK-4548
Epoch Orbit130
Epoch Day324.91667824
Epoch Year2022
RAAN112.677
Inclination53.214
Eccentricity0.0001249
Argument of Perigee88.0815
Mean Anonmoly221.0995
Mean Motion15.08853585
Decay Rate-0.00016868
L11 53431U 22097AV 22324.91667824 -.00016868 00000+0 -10438-2 0 9990
L22 53431 53.2140 112.6770 0001249 88.0815 221.0995 15.08853585 1303



Live tracking and technical data element details for STARLINK-4548 (NORAD 53431). STARLINK-4548 can be tracked NOW for your location showing map with azimuth and elevation plus other details from your city location.







IsCatalogInMostPopularTable: catalog: 53431, numindb: 6
Update: records affected: 1



GetName: 53431 STARLINK-4548

Hit Count: updated at: Tue, 29 Nov 2022 00:03:56 GMT